Flag for U.S.A. Weather past 2 weeks in Decatur, Illinois, U.S.A.

Now
49 °F

Low clouds.


Feels Like: 44 °F
Forecast: 34 / 48 °F
Wind: 12 mph from West

Location: Decatur Airport

Current Time: Dec 27, 2014 at 11:58:44 AM

Latest Report: Dec 27, 2014 at 10:54 AM


Visibility: 8 mi

Pressure: 30.11 "Hg

Humidity: 93%

Dew point: 47 °F

Location of DecaturLocation

Historic Weather in Decatur — Graph

°F

Decatur temperature yesterday

Maximum temperature yesterday: 54 °F (at 2:54 PM)
Minimum temperature yesterday: 37 °F (at 12:54 AM)
Average temperature yesterday: 45 °F

Past Weeks' High & Low Weather Summary

 TemperatureHumidityPressure
High54 °F (Dec 26, 2:54 PM)100% (Dec 22, 10:54 AM)30.40 "Hg (Dec 22, 10:54 AM)
Low19 °F (Dec 19, 6:54 AM)59% (Dec 19, 2:54 PM)29.55 "Hg (Dec 22, 11:54 PM)
Average38 °F85%30.06 "Hg
* Reported Dec 12 10:54 AM — Dec 27 10:54 AM, Decatur, Weather by CustomWeather, © 2014

Note: Actual official high and low records may vary slightly from our data, if they occured in-between our weather recording intervals... More about our weather records

Advertising

Decatur weather history for previous 24 hours

 ConditionsComfort  
Time TempWeatherWind HumidityBarometerVisibility
10:54 AM
Dec 27
49 °FLow clouds.12 mph93%30.11 "Hg8 mi
10:01 AM48 °FFog.13 mph96%30.11 "Hg5 mi
8:54 AM48 °FMostly cloudy.15 mph93%30.09 "Hg8 mi
7:54 AM47 °FFog.14 mph93%30.06 "Hg6 mi
6:54 AM47 °FLow clouds.13 mph93%30.07 "Hg7 mi
5:54 AM47 °FLow clouds.15 mph93%30.07 "Hg8 mi
4:54 AM47 °FLow clouds.17 mph93%30.04 "Hg10 mi
3:54 AM46 °FLow clouds.17 mph93%30.04 "Hg10 mi
2:54 AM46 °FLow clouds.16 mph93%30.05 "Hg10 mi
1:54 AM46 °FLow clouds.14 mph93%30.06 "Hg9 mi
1:01 AM46 °FLight rain. Fog.15 mph89%30.06 "Hg5 mi
11:54 PM
Dec 26
48 °FLight rain. Overcast.12 mph83%30.07 "Hg5 mi
10:54 PM49 °FOvercast.14 mph80%30.06 "Hg10 mi
9:54 PM50 °FMostly cloudy.13 mph77%30.06 "Hg10 mi
8:54 PM49 °FOvercast.15 mph80%30.06 "Hg10 mi
7:54 PM47 °FClear.10 mph83%30.06 "Hg10 mi
6:54 PM48 °FClear.13 mph83%30.06 "Hg10 mi
5:54 PM48 °FClear.10 mph83%30.06 "Hg10 mi
4:54 PM49 °FClear.10 mph77%30.06 "Hg10 mi
3:54 PM52 °FPassing clouds.9 mph72%30.05 "Hg10 mi
2:54 PM54 °FPartly sunny.14 mph69%30.05 "Hg10 mi
1:54 PM53 °FPassing clouds.15 mph69%30.04 "Hg10 mi
12:54 PM52 °FSunny.18 mph72%30.05 "Hg10 mi
11:54 AM52 °FSunny.18 mph69%30.08 "Hg10 mi
Weather by CustomWeather, © 2014

See weather overviewHow to use our weather pages